Location: D�derode
(51.8092°N, 10.1065°E)
Time: 07:04:53
(UTC+00:00)

Meteor 2-6 Rocket - Pass Details

Date: 01 December 2020
Orbit: 806 x 914 km, 81.3° (Epoch: 23 January)

Event Time Altitude Azimuth Distance (km) Brightness Sun altitude
Rises 17:26:52 0° 179° (S) 3,402 7.5 -19.8°
Reaches altitude 10° 17:29:19 10° 176° (S) 2,455 6.7 -20.2°
Maximum altitude 17:34:46 61° 97° (E) 937 4.1 -21.0°
Enters shadow 17:37:45 27° 26° (NNE) 1,555 5.3 -21.5°
